TimePST,TemperatureF,Dew PointF,Humidity,Sea Level PressureIn,VisibilityMPH,Wind Direction,Wind SpeedMPH,Gust SpeedMPH,PrecipitationIn,Events,Conditions,WindDirDegrees,DateUTC
12:53 AM,51.1,43.0,74,30.07,10.0,SW,16.1,-,N/A,,Overcast,230,2014-01-10 08:53:00
1:53 AM,51.1,43.0,74,30.09,10.0,SSW,13.8,21.9,N/A,,Overcast,210,2014-01-10 09:53:00
2:53 AM,51.1,43.0,74,30.12,10.0,SW,11.5,-,N/A,,Overcast,220,2014-01-10 10:53:00
3:53 AM,50.0,44.1,80,30.14,10.0,SW,11.5,20.7,N/A,,Overcast,220,2014-01-10 11:53:00
4:53 AM,50.0,43.0,77,30.14,10.0,SSW,15.0,-,N/A,,Overcast,210,2014-01-10 12:53:00
5:53 AM,50.0,43.0,77,30.16,10.0,SSW,9.2,-,N/A,,Overcast,200,2014-01-10 13:53:00
6:53 AM,50.0,43.0,77,30.16,10.0,SW,10.4,-,N/A,,Overcast,220,2014-01-10 14:53:00
7:53 AM,50.0,44.1,80,30.16,9.0,SW,10.4,-,0.00,Rain,Light Rain,220,2014-01-10 15:53:00
8:53 AM,50.0,44.1,80,30.17,10.0,SW,10.4,-,0.01,,Overcast,220,2014-01-10 16:53:00
9:53 AM,50.0,44.1,80,30.17,9.0,SW,12.7,-,N/A,,Overcast,220,2014-01-10 17:53:00
10:53 AM,52.0,46.0,80,30.16,9.0,SW,12.7,-,N/A,,Overcast,220,2014-01-10 18:53:00
11:53 AM,52.0,45.0,77,30.15,10.0,WSW,11.5,-,N/A,,Overcast,240,2014-01-10 19:53:00
12:32 PM,53.1,44.1,71,30.13,10.0,SW,9.2,-,N/A,,Overcast,230,2014-01-10 20:32:00
12:53 PM,53.1,44.1,71,30.12,10.0,SSW,8.1,-,N/A,,Overcast,200,2014-01-10 20:53:00
1:53 PM,53.1,45.0,74,30.08,10.0,SSW,6.9,-,N/A,,Overcast,200,2014-01-10 21:53:00
2:53 PM,53.1,45.0,74,30.04,10.0,South,4.6,-,N/A,,Overcast,190,2014-01-10 22:53:00
3:00 PM,53.1,45.0,74,30.04,10.0,South,4.6,-,0.00,Rain,Light Rain,190,2014-01-10 23:00:00
3:53 PM,53.1,45.0,74,30.03,10.0,Calm,Calm,-,0.00,Rain,Light Rain,0,2014-01-10 23:53:00
4:53 PM,52.0,45.0,77,30.01,10.0,ESE,3.5,-,0.00,,Overcast,120,2014-01-11 00:53:00
5:53 PM,53.1,44.1,71,29.98,10.0,SSW,3.5,-,N/A,,Overcast,200,2014-01-11 01:53:00
6:53 PM,48.9,46.0,90,29.97,10.0,East,6.9,-,N/A,,Overcast,90,2014-01-11 02:53:00
7:53 PM,48.9,46.0,90,29.94,10.0,East,4.6,-,N/A,,Overcast,90,2014-01-11 03:53:00
8:53 PM,48.0,45.0,89,29.91,10.0,East,3.5,-,N/A,,Overcast,80,2014-01-11 04:53:00
9:53 PM,50.0,44.1,80,29.87,10.0,East,4.6,-,N/A,,Overcast,80,2014-01-11 05:53:00
10:53 PM,50.0,44.1,80,29.82,10.0,Calm,Calm,-,N/A,,Overcast,0,2014-01-11 06:53:00
11:53 PM,59.0,39.0,48,29.78,10.0,SSW,15.0,23.0,N/A,,Overcast,210,2014-01-11 07:53:00